EST,Max TemperatureF,Mean TemperatureF,Min TemperatureF,Max Dew PointF,MeanDew PointF,Min DewpointF,Max Humidity, Mean Humidity, Min Humidity, Max Sea Level PressureIn, Mean Sea Level PressureIn, Min Sea Level PressureIn, Max VisibilityMiles, Mean VisibilityMiles, Min VisibilityMiles, Max Wind SpeedMPH, Mean Wind SpeedMPH, Max Gust SpeedMPH,PrecipitationIn, CloudCover, Events, WindDirDegrees
2013-2-1,17,12,6,12,8,1,86,80,68,30.14,29.95,29.69,10,2,0,21,13,28,0.00,8,,259
2013-2-2,15,12,8,12,6,0,93,78,67,30.14,29.99,29.87,10,6,1,15,11,23,0.00,8,,199
2013-2-3,19,16,12,16,11,7,100,84,68,29.87,29.79,29.71,10,6,0,18,4,24,0.00,8,,233
2013-2-4,17,14,12,14,11,7,86,83,73,29.91,29.86,29.81,10,4,1,16,7,17,0.00,8,,254
2013-2-5,23,16,10,18,13,9,100,82,68,29.85,29.81,29.77,10,10,3,9,4,,0.00,7,,243
2013-2-6,24,18,12,21,14,9,93,78,63,30.28,30.11,29.84,10,8,1,16,8,21,0.00,5,,288
2013-2-7,35,22,8,21,15,5,92,69,52,30.27,30.16,29.96,10,10,10,16,5,25,0.00,5,,155
2013-2-8,33,24,14,32,22,9,100,84,69,30.05,29.85,29.71,10,5,1,21,13,30,0.06,8,,208
2013-2-9,21,16,10,16,11,7,93,82,68,30.32,30.25,30.06,10,7,2,14,9,21,0.00,5,,327
2013-2-10,42,25,8,19,13,3,93,65,31,30.30,30.16,29.93,10,10,10,17,7,24,0.00,3,,171
2013-2-11,44,36,28,39,28,18,100,79,48,29.92,29.74,29.61,10,8,0,26,13,36,0.03,8,,220
2013-2-12,28,26,24,25,21,19,86,78,74,29.96,29.90,29.78,10,8,2,25,16,34,0.00,8,,260
2013-2-13,35,28,21,23,20,18,100,78,52,29.87,29.76,29.67,10,10,4,14,3,,0.00,5,,280
2013-2-14,33,26,19,32,24,16,93,88,80,29.86,29.81,29.78,10,5,1,17,9,21,0.01,8,,201
2013-2-15,33,26,19,28,20,10,86,73,60,30.01,29.92,29.79,10,9,2,22,14,33,0.01,8,,274
2013-2-16,23,18,14,16,8,3,80,64,49,30.01,29.93,29.85,10,10,2,15,5,16,0.00,6,,274
2013-2-17,15,14,12,12,7,1,92,77,62,30.12,29.95,29.84,10,4,0,26,10,32,0.00,8,,324
2013-2-18,35,20,6,21,10,1,92,61,38,30.18,30.06,29.85,10,10,8,15,7,22,0.00,3,,200
2013-2-19,39,28,17,36,24,10,100,80,52,29.85,29.68,29.57,10,7,1,25,12,31,0.05,7,,217
2013-2-20,17,14,12,12,10,7,92,79,68,30.05,29.91,29.77,6,2,0,21,14,28,0.00,8,,265
2013-2-21,17,14,12,12,10,7,92,79,68,30.31,30.18,30.03,10,7,2,17,9,25,0.00,7,,315
2013-2-22,30,22,14,27,19,10,93,82,59,30.27,30.07,29.96,10,10,3,20,10,28,0.00,6,,153
2013-2-23,32,28,24,30,25,19,100,90,74,29.96,29.88,29.83,10,6,1,14,9,21,0.00,8,,225
2013-2-24,24,24,23,21,19,16,86,79,69,30.06,29.92,29.83,10,8,1,17,8,22,0.00,8,,265
2013-2-25,30,24,19,21,19,18,93,77,64,30.18,30.13,30.07,10,9,5,10,4,,0.00,5,,5
2013-2-26,37,30,24,30,23,18,93,72,56,30.12,29.91,29.62,10,9,2,18,9,26,0.46,3,,119
2013-2-27,35,32,30,34,31,28,100,90,81,29.61,29.57,29.54,10,5,0,15,10,23,0.04,8,,204
2013-2-28,30,29,28,30,27,25,100,91,86,29.73,29.59,29.53,10,5,1,13,8,20,0.00,8,,265